STARLINK-1364, 45589

Orbit data source: Space-Track

STARLINK-1364, 45589 is a payload satellite owned by SpaceX/Seattle (US) in LEO that was launched on Wed, 22 Apr 2020 UTC via an FALCON 9 launch vehicle from the Air Force Eastern Test Range (AFETR). Payload-class satellites include a variety of spacecraft equipped with specific instruments for various scientific and technological missions. These include communications satellites like Starlink; space stations such as the ISS; scientific satellites like the Hubble; Earth observation satellites from companies like Planet Labs, Umbra, and HawkEye 360; GPS; miniature CubeSats for education and research; and military/defense satellites.

Not visible in the next 10 days
Identifier
45589, 2020-025BL
Orbit
LEO
Country
Flag of USUS
Related business
Manufacturer
SpaceX/Seattle
Mission
Partially operational Commercial Communications
Bus & Motor
STARLINK, Unknown motor
Mass
260 kg wet, ~248 kg dry
Launch date (UTC)
2020-04-22 (6 years ago)
Launch vehicle
FALCON 9
Launch site
Air Force Eastern Test Range (AFETR)
Object type
Payload
Rocket body
Debris
Shape & HBR
Box + 1 Pan, 10.1 m
Radar Cross Section
13.562 m², Large (>1 m²)

Expand to show TLE details & history
Last TLE update: 9 hours ago

TLE from 9 hours ago
0 STARLINK-1364
1 45589U 20025BL  26266.11626575  .00096230  00000-0  41596-3 0  9993
2 45589  53.0339 170.1073 0002859 107.1046 253.0290 15.84181496356662
Epoch: 2026-09-23T02:47Z
TLE epoch observation values (Epoch: 2026-09-23T02:47:25.360Z)
Latitude
-0.00002°
Longitude
126.27961°
Altitude
320.097 km
Speed
7.717 km/s
True Right ascension
11h 20m 25s
True Declination
0° 00' 00"
Sunlit
Object was in daylight at epoch
Visualization orbit readout
Latitude
Unknown
Longitude
Unknown
Altitude
Unknown
Speed
Unknown
Apparent Right ascension
Unknown
Apparent Declination
Unknown
Sunlit
N/A
Visualization observer readout
Local Sidereal Time
04:56:26
Azimuth
Unknown
Elevation
Unknown
Doppler factor
Unknown
Orbital elements
Apogee altitude
320.828 km
Perigee altitude
316.999 km
Semi-major axis
6,697.051 km
Eccentricity
0.00029
Inclination
53.0339°
RAAN
170.1073°
Arg. of periapsis
107.1046°
True anomaly
252.99767°
Mean anomaly
253.029°
Eccentric anomaly
253.01333°
Mean motion
3.96021 °/min
Orbital period
90.9 mins
BSTAR
0.00041596
Loading maneuver chart data...
Computing Atmospheric mass density...

Documentation

Showing up to 5 results
|